[ x ]
ituDewa

Jackpot

Texas Poker Multi Jackpot System

Kini Telah hadir Jackpot SUPER ROYAL FLUSH

Kini Telah hadir Jackpot 2000 (khusus table VIP keatas).

Ikutilah global jackpot yang tersedia di system kami, dengan system jackpot terbaru dan pertama di indonesia, anda dapat membeli jackpot dengan harga 100 rupiah saja dan menangkan hadiahnya hingga puluhan juta rupiah.

Jackpot bukanlah suatu keharusan untuk dibeli, namun kami memberikan suatu fitur tambahan untuk member tercinta dari www.itudewaku.com.

Terdapat tiga pilihan harga jackpot yang bisa anda beli yaitu :100,500,1000 dan 2000(khusus table VIP Keatas) rupiah.

Hadiah dari Multi jackpot system www.itudewaku.com

  1. full house x 10 harga jackpot yang anda beli.
      (contoh:anda membeli 1000 maka:1000 X10 = 10.000)
  2. four of kind x 250 harga jackpot yang anda beli
      (contoh:anda membeli 1000 maka:1000 X250 = 250.000)
  3. Straight flush x 1200
      (contoh:anda membeli 1000 maka:1000 X1200 = 1.200.000)
  4. Royal flush x 10000 harga jackpot yang anda beli
      (contoh:anda membeli 1000 maka:1000 X10000 = 10.000.000)
  5. SUPER ROYAL FLUSH x 30000 harga jackpot yang anda beli
      (contoh:anda membeli 1000 maka:1000 X30000 = 30.000.000)

Kondisi kartu

  1. full house adalah kondisi kartu dimana kartu anda dan kartu tengah dengan total 7 kartu bisa mendapatkan nilai 5 kartu dengan kombinasi 1 tris(three of kind) dan 1 pair, contoh 3 kartu 10 dan 2 kartu 5
  2. Four of kind adalah kondisi kartu dimana kartu anda dan kartu tengah dengan total 7 kartu bisa mendapatkan nilai 5 kartu dengan kombinasi 4 kartu yang sama jumlah dan 1 kartu apapun juga contoh anda mendapatkan 4 buah kartu angka 3 dan 1 kartu apapun.
  3. Staright flush adalah kondisi kartu dimana kartu anda dan kartu tengah dengan total 7 kartu bisa mendapatkan nilai 5 kartu dengan kombinasi seri / staright dengan kembang yang sama contoh : urutan kartu dari angka 5, 6, 7, 8 , 9 10 dengan kembang yg sama misalnya as hati
  4. Royal flush adalah kondisi kartu dimana kartu anda dan kartu tengah dengan total 7 kartu bisa mendapatkan nilai 5 kartu dengan kombinasi seri / staright dengan kembang yang sama tetapi kartu tersebut haruslah dimulai dari 10. contoh 10, Queen, Jack, King dan aces dengan kembang yang sama
  5. Super Royal flush adalah kondisi kartu dimana Kedua kartu anda digabung dengan 3 kartu pertama meja haruslah royal flush. contoh kartu anda 10,Queen kembang sama dan 3 kartu pertama meja adalah Jack, King dan aces dengan kembang yang sama

Demikian adalah penjelasan dari Multi Jackpot www.itudewaku.com terima kasih dan selamat bermain salam hoki dari kami

Texas Poker Jackpot Winner

TOP SUPER ROYAL FLUSH
No.TanggalNamaPriceWin
124/06 22:49KEBOK66Super Royal flush6,000,000
224/06 17:20FAI50N9Super Royal flush6,000,000
324/06 14:14ISANASuper Royal flush6,000,000
424/06 10:18SYPHON88Super Royal flush3,000,000
524/06 09:01MONJUBOY9Super Royal flush30,000,000
TOP ROYAL FLUSH
No.TanggalNamaPriceWin
125/06 12:28GR26V0XMLSRoyal flush5,000,000
225/06 11:48MARION_Royal flush1,000,000
325/06 11:33QAQA0505Royal flush2,000,000
425/06 11:27MASOKA20Royal flush10,000,000
525/06 11:15F487A968Royal flush1,000,000
TOP STRAIGHT FLUSH
No.TanggalNamaPriceWin
125/06 12:44DAULIA699Straight Flush240,000
225/06 12:42PARKJUNGLEStraight Flush600,000
325/06 12:39LOEPIGStraight Flush240,000
425/06 12:39REKSABUMIStraight Flush240,000
525/06 12:38SV_PLSTNAStraight Flush1,200,000
LATEST JACKPOT
No.TanggalNamaPriceWin
125/06 12:46BONKAR123Full House1,000
225/06 12:46BOLEHJUGAFull House2,000
325/06 12:46K3NTUS_JPFour Of A Kind50,000
425/06 12:45LUKMANN378Full House2,000
525/06 12:45L0H76WGFZDFull House1,000
625/06 12:45MAMAS151Full House20,000
725/06 12:45LB993533Full House20,000
825/06 12:45DAMLER21Full House2,000
925/06 12:45SAIYA331Full House10,000
1025/06 12:45RAKKA86Full House1,000
1125/06 12:45NAD081XXXXFull House5,000
1225/06 12:45BECUNFull House2,000
1325/06 12:45LUCNITA_18Full House2,000
1425/06 12:45TIIQ2F1U5QFull House10,000
1525/06 12:45G9D2033YYIFull House10,000
1625/06 12:45JAN999Full House2,000
1725/06 12:45JEPUNG85Full House2,000
1825/06 12:45DOLCOMBROFull House2,000
1925/06 12:45G7ONW0R9X1Full House2,000
2025/06 12:45TEMPLE12Full House5,000
2125/06 12:45BOLENK88Full House5,000
2225/06 12:45TOMYAMYAMFull House10,000
2325/06 12:45T4KPAIRFull House5,000
2425/06 12:45DINDIN122Full House2,000
2525/06 12:45F4D2A9DEFour Of A Kind50,000
2625/06 12:45LEBOI22Full House5,000
2725/06 12:45WUIH69Full House2,000
2825/06 12:45COBRA989Full House2,000
2925/06 12:45KOMPAK90Full House10,000
3025/06 12:45A77ARISFull House10,000
3125/06 12:45COVIANIFull House2,000
3225/06 12:45BOHA1986Four Of A Kind500,000
3325/06 12:45SLOW7777Full House1,000
3425/06 12:45RIRI_RATUFull House1,000
3525/06 12:45A0D26DC1Four Of A Kind125,000
3625/06 12:45RAHWANA666Full House2,000
3725/06 12:45PETTONKFull House2,000
3825/06 12:45ADQ54Full House10,000
3925/06 12:45T988MINATOFull House500
4025/06 12:45T4D0014357Full House2,000
4125/06 12:45ZINAH009Full House1,000
4225/06 12:45F698D548Full House1,000
4325/06 12:45CAMPIOENFull House500
4425/06 12:45F3AYS71D5MFull House5,000
4525/06 12:45VZONKPKQ9Full House10,000
4625/06 12:45VIKY81Full House10,000
4725/06 12:44SHENI11Full House10,000
4825/06 12:44E664B7E4Full House2,000
4925/06 12:44SHEJHE501Full House10,000
5025/06 12:44SUZUKIERCIFull House10,000

Domino Multi Jackpot System

Ikutilah global jackpot yang tersedia di system kami, dengan system jackpot terbaru dan pertama di indonesia, anda dapat membeli jackpot dengan harga 100 rupiah saja dan menangkan hadiahnya hingga puluhan juta rupiah.

Jackpot bukanlah suatu keharusan untuk dibeli, namun kami memberikan suatu fitur tambahan untuk member tercinta dari www.itudewaku.com.

Terdapat tiga pilihan harga jackpot yang bisa anda beli yaitu :100,500 dan 1000 rupiah.

Hadiah dari Multi jackpot system www.itudewaku.com

  1. Murni Kecil x 50 harga jackpot yang anda beli.
      (contoh:anda membeli 1000 maka:1000 X 50 = 50.000)
  2. Murni Besar x 50 harga jackpot yang anda beli
      (contoh:anda membeli 1000 maka:1000 X 50 = 50.000)
  3. BALAK x 100 harga jackpot yang anda beli
      (contoh:anda membeli 1000 maka:1000 X 100 = 100.000)
  4. ENAM DEWA x 6666 harga jackpot yang anda beli
      (contoh:anda membeli 1000 maka:1000 X 6666 = 6.666.000)

Demikian adalah penjelasan dari Multi Jackpot www.itudewaku.com terima kasih dan selamat bermain salam hoki dari kami

Domino Jackpot Winner

TOP ENAM DEWA
No.TanggalNamaPriceWin
125/06 11:56MASHARJOmurni enam3,333,000
225/06 10:16RAKAB22murni enam6,666,000
325/06 10:12SASUKEZmurni enam6,666,000
425/06 09:31O0JZKLJ9M1murni enam6,666,000
525/06 02:58MDRSOPYANA945murni enam6,666,000
TOP BALAK
No.TanggalNamaPriceWin
125/06 12:38AGTU123balak100,000
225/06 12:34LB992882balak100,000
325/06 12:31QQYUNIARTIbalak10,000
425/06 12:31KAKAP1818balak100,000
525/06 12:27PANAD0LLbalak100,000
LATEST JACKPOT
No.TanggalNamaPriceWin
125/06 12:45SUBRIEL03murni besar5,000
225/06 12:45TONI2805murni kecil5,000
325/06 12:45WANUEKmurni besar50,000
425/06 12:43T4DKUE15murni kecil5,000
525/06 12:41ABCDEFZmurni besar5,000
625/06 12:41GEMEK55murni kecil50,000
725/06 12:41AMEXONmurni besar5,000
825/06 12:41AS3918murni besar5,000
925/06 12:41SADAMSmurni besar50,000
1025/06 12:40FEBI27murni kecil50,000
1125/06 12:40STUGERmurni kecil50,000
1225/06 12:39GDGGDYEDHHmurni kecil50,000
1325/06 12:38MANISAN009murni besar50,000
1425/06 12:38AGTU123balak100,000
1525/06 12:38SULIS09murni kecil50,000
1625/06 12:37TUNA68murni kecil50,000
1725/06 12:37HAJIWAN1murni besar50,000
1825/06 12:37SLAK077murni besar50,000
1925/06 12:3722122murni besar50,000
2025/06 12:36YE2N77lucky9950,000
2125/06 12:34LB992882balak100,000
2225/06 12:34JP0ZE9DJAXmurni besar50,000
2325/06 12:33TONI998murni besar50,000
2425/06 12:32RAKAB22lucky9950,000
2525/06 12:31LOTZ888murni kecil50,000
2625/06 12:31QQYUNIARTIbalak10,000
2725/06 12:31RTDANTOmurni besar50,000
2825/06 12:31KAKAP1818balak100,000
2925/06 12:30BOSGETAH32murni kecil5,000
3025/06 12:29GIYANTO12murni kecil50,000
3125/06 12:29RISKYTERUSmurni besar50,000
3225/06 12:29CEBONG169murni kecil25,000
3325/06 12:29NIKI2010murni kecil5,000
3425/06 12:27PANAD0LLbalak100,000
3525/06 12:26MENANGYA12murni besar25,000
3625/06 12:26BENTER66murni kecil50,000
3725/06 12:25SADAMSmurni kecil50,000
3825/06 12:25RUFI123balak10,000
3925/06 12:24BOYDEN99murni kecil5,000
4025/06 12:23IDCPO171108murni kecil50,000
4125/06 12:22MERCOOONmurni kecil50,000
4225/06 12:22FACOX505murni kecil25,000
4325/06 12:22RAKAB22murni besar50,000
4425/06 12:22TJA09murni besar5,000
4525/06 12:22BUSER8667murni besar5,000
4625/06 12:22TILARmurni kecil50,000
4725/06 12:21B74Rmurni besar25,000
4825/06 12:20CUPI266murni besar50,000
4925/06 12:20DOLOPOHmurni kecil5,000
5025/06 12:19ELZAHRANmurni kecil25,000

Ceme Multi Jackpot System

Jackpot dilihat dari gabungan kartu pemain dengan kartu bandar. Bandar harus membeli jackpot sebanyak jumlah player yang sedang duduk. Sebagai contoh bila terdapat 3 pemain duduk bermain, dan bandar memutuskan untuk membeli jackpot Rp 1.000, maka pada periode tersebut bandar akan membeli jackpot sebanyak 3xRp1.000 = Rp3.000.

Jackpot bukanlah suatu keharusan untuk dibeli, namun kami memberikan suatu fitur tambahan untuk member tercinta dari www.itudewaku.com.

Terdapat tiga pilihan harga jackpot yang bisa anda beli yaitu :100,500 dan 1000 rupiah.

Hadiah dari Multi jackpot system www.itudewaku.com

  1. Murni Kecil x 50 harga jackpot yang anda beli.
      (contoh:anda membeli 1000 maka:1000 X 50 = 50.000)
  2. Murni Besar x 50 harga jackpot yang anda beli
      (contoh:anda membeli 1000 maka:1000 X 50 = 50.000)
  3. BALAK x 200 harga jackpot yang anda beli
      (contoh:anda membeli 1000 maka:1000 X 200 = 200.000)
  4. ENAM DEWA x 6666 harga jackpot yang anda beli
      (contoh:anda membeli 1000 maka:1000 X 6666 = 6.666.000)

Demikian adalah penjelasan dari Multi Jackpot www.itudewaku.com terima kasih dan selamat bermain salam hoki dari kami

Ceme Jackpot Winner

TOP ENAM DEWA
No.TanggalNamaPriceWin
125/06 12:36ALPA72murni enam6,666,000
225/06 12:36KERETALEWAmurni enam666,600
325/06 12:09MUSA0021murni enam6,666,000
425/06 12:09IBASKYmurni enam6,666,000
525/06 11:59GERPGVSXH2murni enam3,333,000
TOP BALAK
No.TanggalNamaPriceWin
125/06 12:46MADNESTAbalak200,000
225/06 12:43KUBIL165balak20,000
325/06 12:43ELANDA15balak20,000
425/06 12:42PAKIDE1balak200,000
525/06 12:42JOKKULITbalak200,000
LATEST JACKPOT
No.TanggalNamaPriceWin
125/06 12:46DESTR0YER4murni besar50,000
225/06 12:46CRODOTS99murni besar50,000
325/06 12:46MADNESTAbalak200,000
425/06 12:46SURYANICLBmurni kecil50,000
525/06 12:45KALMAR02murni besar50,000
625/06 12:45MARDYAN99murni kecil50,000
725/06 12:45BLAPAK89murni kecil25,000
825/06 12:45M2000234murni besar25,000
925/06 12:45ZULFI868murni kecil50,000
1025/06 12:45DESTR0YER4murni kecil50,000
1125/06 12:45AMIFTAH4murni kecil50,000
1225/06 12:45SYAIHAN1murni kecil50,000
1325/06 12:45RANESTmurni kecil25,000
1425/06 12:45C4NGCUT321murni kecil50,000
1525/06 12:45MURAI878murni kecil50,000
1625/06 12:45ZAF18murni besar50,000
1725/06 12:45MRIZAL007murni kecil50,000
1825/06 12:45TOLEZmurni kecil50,000
1925/06 12:44JEKIPOmurni besar50,000
2025/06 12:44AND8999murni besar50,000
2125/06 12:44AZIESENOmurni kecil25,000
2225/06 12:44JAWAIKA07murni besar5,000
2325/06 12:44NABANKmurni besar25,000
2425/06 12:44KALMAR02murni besar50,000
2525/06 12:44MUCLEEmurni besar50,000
2625/06 12:44C4NGCUT321murni kecil50,000
2725/06 12:44EHEBEmurni kecil50,000
2825/06 12:44SICUCU05murni kecil50,000
2925/06 12:44WANGI83murni kecil25,000
3025/06 12:43AZIESENOmurni kecil25,000
3125/06 12:43DD2605murni kecil50,000
3225/06 12:43SURYANICLBmurni kecil50,000
3325/06 12:43DAIM168murni besar50,000
3425/06 12:43KUBIL165balak20,000
3525/06 12:43I5TWUBUCPCmurni kecil50,000
3625/06 12:43OYE02murni kecil5,000
3725/06 12:43ELANDA15balak20,000
3825/06 12:43EKALSUT26murni kecil5,000
3925/06 12:43OJONESUYAmurni besar50,000
4025/06 12:42PPKHITAMmurni kecil5,000
4125/06 12:42PAKIDE1balak200,000
4225/06 12:42JOKKULITbalak200,000
4325/06 12:42RANESTmurni kecil5,000
4425/06 12:42SARIF75balak200,000
4525/06 12:42GALUNG38murni kecil5,000
4625/06 12:42PUO999murni kecil50,000
4725/06 12:42DJAROT766murni besar50,000
4825/06 12:42DUGONG_756murni besar50,000
4925/06 12:42IDGALAKmurni besar5,000
5025/06 12:41X1NOZmurni kecil50,000